contact:dominique.lefevre@mio.osupytheas.fr, maurice.libes@osupytheas.fr, didier.mallarino@osupytheas.fr
Project:EMSO http://www.emso-fr.org/EMSO-France
Depth: 2436.0 m
Title:EMSO Ligure Ouest : Data MII capteur MICROCAT
DateTime_Computer,Latitude,Longitude,Temperature,Conductivity,Pressure,DateTime_Instrument
DateTime_Computer,Latitude,Longitude,degC,S m-1,dbar,DateTime_Instrument
2023-12-24T00:01:06Z,42.805,6.029,13.3071,4.60179,2470.646,2023-12-24T02:03:37Z
2023-12-24T00:04:09Z,42.805,6.029,13.3061,4.60148,2470.661,2023-12-24T02:06:40Z
2023-12-24T00:07:12Z,42.805,6.029,13.3051,4.60193,2470.67,2023-12-24T02:09:43Z
2023-12-24T00:10:16Z,42.805,6.029,13.3090,4.60183,2470.67,2023-12-24T02:12:46Z
2023-12-24T00:13:19Z,42.805,6.029,13.3065,4.60183,2470.67,2023-12-24T02:15:49Z
2023-12-24T00:16:22Z,42.805,6.029,13.3070,4.60185,2470.646,2023-12-24T02:18:52Z
2023-12-24T00:19:25Z,42.805,6.029,13.3062,4.60206,2470.646,2023-12-24T02:21:55Z
2023-12-24T00:22:28Z,42.805,6.029,13.3066,4.60178,2470.684,2023-12-24T02:24:58Z
2023-12-24T00:25:31Z,42.805,6.029,13.3081,4.60188,2470.67,2023-12-24T02:28:01Z
2023-12-24T00:28:34Z,42.805,6.029,13.3067,4.60190,2470.67,2023-12-24T02:31:05Z
2023-12-24T00:31:37Z,42.805,6.029,13.3085,4.60188,2470.646,2023-12-24T02:34:08Z
2023-12-24T00:34:40Z,42.805,6.029,13.3081,4.60175,2470.646,2023-12-24T02:37:11Z
2023-12-24T00:37:43Z,42.805,6.029,13.3074,4.60203,2470.684,2023-12-24T02:40:14Z
2023-12-24T00:40:46Z,42.805,6.029,13.3104,4.60170,2470.684,2023-12-24T02:43:17Z
2023-12-24T00:43:49Z,42.805,6.029,13.3080,4.60162,2470.661,2023-12-24T02:46:20Z
2023-12-24T00:46:53Z,42.805,6.029,13.3093,4.60195,2470.684,2023-12-24T02:49:23Z
2023-12-24T00:49:56Z,42.805,6.029,13.3058,4.60203,2470.707,2023-12-24T02:52:26Z
2023-12-24T00:52:59Z,42.805,6.029,13.3060,4.60204,2470.661,2023-12-24T02:55:29Z
2023-12-24T00:56:02Z,42.805,6.029,13.3076,4.60153,2470.693,2023-12-24T02:58:32Z
2023-12-24T00:59:05Z,42.805,6.029,13.3056,4.60191,2470.67,2023-12-24T03:01:35Z
2023-12-24T01:02:08Z,42.805,6.029,13.3056,4.60218,2470.67,2023-12-24T03:04:38Z
2023-12-24T01:05:11Z,42.805,6.029,13.3084,4.60227,2470.707,2023-12-24T03:07:42Z
2023-12-24T01:08:14Z,42.805,6.029,13.3078,4.60144,2470.679,2023-12-24T03:10:45Z
2023-12-24T01:11:17Z,42.805,6.029,13.3078,4.60163,2470.73,2023-12-24T03:13:48Z
2023-12-24T01:14:20Z,42.805,6.029,13.3077,4.60183,2470.67,2023-12-24T03:16:51Z
2023-12-24T01:17:23Z,42.805,6.029,13.3058,4.60202,2470.693,2023-12-24T03:19:54Z
2023-12-24T01:20:26Z,42.805,6.029,13.3067,4.60180,2470.67,2023-12-24T03:22:57Z
2023-12-24T01:23:30Z,42.805,6.029,13.3078,4.60180,2470.73,2023-12-24T03:26:00Z
2023-12-24T01:26:33Z,42.805,6.029,13.3056,4.60142,2470.717,2023-12-24T03:29:03Z
2023-12-24T01:29:36Z,42.805,6.029,13.3061,4.60176,2470.717,2023-12-24T03:32:06Z
2023-12-24T01:32:39Z,42.805,6.029,13.3066,4.60179,2470.693,2023-12-24T03:35:09Z
2023-12-24T01:35:42Z,42.805,6.029,13.3070,4.60170,2470.717,2023-12-24T03:38:12Z
2023-12-24T01:38:45Z,42.805,6.029,13.3069,4.60167,2470.717,2023-12-24T03:41:15Z
2023-12-24T01:41:48Z,42.805,6.029,13.3064,4.60174,2470.693,2023-12-24T03:44:19Z
2023-12-24T01:44:51Z,42.805,6.029,13.3048,4.60175,2470.754,2023-12-24T03:47:22Z
2023-12-24T01:47:54Z,42.805,6.029,13.3069,4.60191,2470.717,2023-12-24T03:50:25Z
2023-12-24T01:50:57Z,42.805,6.029,13.3051,4.60147,2470.707,2023-12-24T03:53:28Z
2023-12-24T01:54:00Z,42.805,6.029,13.3061,4.60165,2470.693,2023-12-24T03:56:31Z
2023-12-24T01:57:03Z,42.805,6.029,13.3048,4.60183,2470.717,2023-12-24T03:59:34Z
2023-12-24T02:00:07Z,42.805,6.029,13.3058,4.60173,2470.74,2023-12-24T04:02:37Z
2023-12-24T02:03:10Z,42.805,6.029,13.3048,4.60183,2470.754,2023-12-24T04:05:40Z
2023-12-24T02:06:13Z,42.805,6.029,13.3058,4.60163,2470.754,2023-12-24T04:08:43Z
2023-12-24T02:09:16Z,42.805,6.029,13.3063,4.60151,2470.754,2023-12-24T04:11:46Z
2023-12-24T02:12:19Z,42.805,6.029,13.3063,4.60152,2470.74,2023-12-24T04:14:49Z
2023-12-24T02:15:22Z,42.805,6.029,13.3055,4.60156,2470.777,2023-12-24T04:17:52Z
2023-12-24T02:18:25Z,42.805,6.029,13.3056,4.60174,2470.74,2023-12-24T04:20:56Z
2023-12-24T02:21:28Z,42.805,6.029,13.3054,4.60202,2470.74,2023-12-24T04:23:59Z
2023-12-24T02:24:31Z,42.805,6.029,13.3070,4.60178,2470.754,2023-12-24T04:27:02Z
2023-12-24T02:27:34Z,42.805,6.029,13.3056,4.60192,2470.754,2023-12-24T04:30:05Z
2023-12-24T02:30:37Z,42.805,6.029,13.3048,4.60178,2470.74,2023-12-24T04:33:08Z
2023-12-24T02:33:40Z,42.805,6.029,13.3052,4.60180,2470.763,2023-12-24T04:36:11Z
2023-12-24T02:36:44Z,42.805,6.029,13.3056,4.60180,2470.777,2023-12-24T04:39:14Z
2023-12-24T02:39:47Z,42.805,6.029,13.3063,4.60165,2470.763,2023-12-24T04:42:17Z
2023-12-24T02:42:50Z,42.805,6.029,13.3042,4.60193,2470.754,2023-12-24T04:45:20Z
2023-12-24T02:45:53Z,42.805,6.029,13.3090,4.60194,2470.777,2023-12-24T04:48:23Z
2023-12-24T02:48:56Z,42.805,6.029,13.3068,4.60147,2470.763,2023-12-24T04:51:26Z
2023-12-24T02:51:59Z,42.805,6.029,13.3070,4.60195,2470.787,2023-12-24T04:54:29Z
2023-12-24T02:55:02Z,42.805,6.029,13.3058,4.60215,2470.763,2023-12-24T04:57:33Z
2023-12-24T02:58:05Z,42.805,6.029,13.3061,4.60198,2470.787,2023-12-24T05:00:36Z
2023-12-24T03:01:08Z,42.805,6.029,13.3070,4.60198,2470.787,2023-12-24T05:03:39Z
2023-12-24T03:04:11Z,42.805,6.029,13.3073,4.60189,2470.74,2023-12-24T05:06:42Z
2023-12-24T03:07:14Z,42.805,6.029,13.3078,4.60222,2470.81,2023-12-24T05:09:45Z
2023-12-24T03:10:17Z,42.805,6.029,13.3069,4.60168,2470.777,2023-12-24T05:12:48Z
2023-12-24T03:13:21Z,42.805,6.029,13.3056,4.60201,2470.8,2023-12-24T05:15:51Z
2023-12-24T03:16:24Z,42.805,6.029,13.3069,4.60166,2470.824,2023-12-24T05:18:54Z
2023-12-24T03:19:27Z,42.805,6.029,13.3059,4.60174,2470.824,2023-12-24T05:21:57Z
2023-12-24T03:22:30Z,42.805,6.029,13.3063,4.60198,2470.754,2023-12-24T05:25:00Z
2023-12-24T03:25:33Z,42.805,6.029,13.3069,4.60173,2470.787,2023-12-24T05:28:03Z
2023-12-24T03:28:36Z,42.805,6.029,13.3069,4.60175,2470.824,2023-12-24T05:31:06Z
2023-12-24T03:31:39Z,42.805,6.029,13.3056,4.60204,2470.833,2023-12-24T05:34:10Z
2023-12-24T03:34:42Z,42.805,6.029,13.3050,4.60213,2470.824,2023-12-24T05:37:13Z
2023-12-24T03:37:45Z,42.805,6.029,13.3078,4.60199,2470.824,2023-12-24T05:40:16Z
2023-12-24T03:40:48Z,42.805,6.029,13.3058,4.60192,2470.81,2023-12-24T05:43:19Z
2023-12-24T03:43:51Z,42.805,6.029,13.3074,4.60168,2470.81,2023-12-24T05:46:22Z
2023-12-24T03:46:54Z,42.805,6.029,13.3075,4.60200,2470.81,2023-12-24T05:49:25Z
2023-12-24T03:49:58Z,42.805,6.029,13.3061,4.60194,2470.81,2023-12-24T05:52:28Z
2023-12-24T03:53:01Z,42.805,6.029,13.3061,4.60185,2470.81,2023-12-24T05:55:31Z
2023-12-24T03:56:04Z,42.805,6.029,13.3072,4.60195,2470.833,2023-12-24T05:58:34Z
2023-12-24T03:59:07Z,42.805,6.029,13.3049,4.60166,2470.824,2023-12-24T06:01:37Z
2023-12-24T04:02:10Z,42.805,6.029,13.3053,4.60184,2470.833,2023-12-24T06:04:40Z
2023-12-24T04:05:13Z,42.805,6.029,13.3057,4.60185,2470.8,2023-12-24T06:07:44Z
2023-12-24T04:08:16Z,42.805,6.029,13.3057,4.60175,2470.871,2023-12-24T06:10:47Z
2023-12-24T04:11:19Z,42.805,6.029,13.3056,4.60185,2470.833,2023-12-24T06:13:50Z
2023-12-24T04:14:22Z,42.805,6.029,13.3043,4.60174,2470.847,2023-12-24T06:16:53Z
2023-12-24T04:17:25Z,42.805,6.029,13.3050,4.60169,2470.833,2023-12-24T06:19:56Z
2023-12-24T04:20:28Z,42.805,6.029,13.3047,4.60160,2470.81,2023-12-24T06:22:59Z
2023-12-24T04:23:31Z,42.805,6.029,13.3058,4.60140,2470.833,2023-12-24T06:26:02Z
2023-12-24T04:26:35Z,42.805,6.029,13.3044,4.60175,2470.847,2023-12-24T06:29:05Z
2023-12-24T04:29:38Z,42.805,6.029,13.3048,4.60181,2470.833,2023-12-24T06:32:08Z
2023-12-24T04:32:41Z,42.805,6.029,13.3045,4.60197,2470.833,2023-12-24T06:35:11Z
2023-12-24T04:35:44Z,42.805,6.029,13.3053,4.60162,2470.871,2023-12-24T06:38:14Z
2023-12-24T04:38:47Z,42.805,6.029,13.3048,4.60160,2470.871,2023-12-24T06:41:17Z
2023-12-24T04:41:50Z,42.805,6.029,13.3051,4.60184,2470.857,2023-12-24T06:44:21Z
2023-12-24T04:44:53Z,42.805,6.029,13.3052,4.60173,2470.857,2023-12-24T06:47:24Z
2023-12-24T04:47:56Z,42.805,6.029,13.3066,4.60168,2470.833,2023-12-24T06:50:27Z
2023-12-24T04:50:59Z,42.805,6.029,13.3054,4.60162,2470.857,2023-12-24T06:53:30Z
2023-12-24T04:54:02Z,42.805,6.029,13.3054,4.60188,2470.871,2023-12-24T06:56:33Z
2023-12-24T04:57:05Z,42.805,6.029,13.3045,4.60185,2470.847,2023-12-24T06:59:36Z
2023-12-24T05:00:09Z,42.805,6.029,13.3049,4.60178,2470.857,2023-12-24T07:02:39Z
2023-12-24T05:03:12Z,42.805,6.029,13.3045,4.60180,2470.871,2023-12-24T07:05:42Z
2023-12-24T05:06:15Z,42.805,6.029,13.3055,4.60159,2470.857,2023-12-24T07:08:45Z
2023-12-24T05:09:18Z,42.805,6.029,13.3049,4.60191,2470.857,2023-12-24T07:11:48Z
2023-12-24T05:12:21Z,42.805,6.029,13.3056,4.60149,2470.843,2023-12-24T07:14:51Z
2023-12-24T05:15:24Z,42.805,6.029,13.3048,4.60174,2470.88,2023-12-24T07:17:54Z
2023-12-24T05:18:27Z,42.805,6.029,13.3054,4.60198,2470.871,2023-12-24T07:20:58Z
2023-12-24T05:21:30Z,42.805,6.029,13.3057,4.60178,2470.857,2023-12-24T07:24:01Z
2023-12-24T05:24:33Z,42.805,6.029,13.3053,4.60175,2470.833,2023-12-24T07:27:04Z
2023-12-24T05:27:36Z,42.805,6.029,13.3063,4.60197,2470.857,2023-12-24T07:30:07Z
2023-12-24T05:30:38Z,42.805,6.029,13.3043,4.60181,2470.857,2023-12-24T07:33:08Z
2023-12-24T05:33:41Z,42.805,6.029,13.3049,4.60162,2470.833,2023-12-24T07:36:11Z
2023-12-24T05:36:44Z,42.805,6.029,13.3062,4.60202,2470.857,2023-12-24T07:39:15Z
2023-12-24T05:39:47Z,42.805,6.029,13.3062,4.60170,2470.871,2023-12-24T07:42:18Z
2023-12-24T05:42:50Z,42.805,6.029,13.3048,4.60183,2470.871,2023-12-24T07:45:21Z
2023-12-24T05:45:53Z,42.805,6.029,13.3069,4.60175,2470.894,2023-12-24T07:48:24Z
2023-12-24T05:48:56Z,42.805,6.029,13.3063,4.60182,2470.847,2023-12-24T07:51:27Z
2023-12-24T05:51:59Z,42.805,6.029,13.3071,4.60179,2470.871,2023-12-24T07:54:30Z
2023-12-24T05:55:03Z,42.805,6.029,13.3053,4.60161,2470.833,2023-12-24T07:57:33Z
2023-12-24T05:58:06Z,42.805,6.029,13.3054,4.60176,2470.857,2023-12-24T08:00:36Z
2023-12-24T06:01:09Z,42.805,6.029,13.3061,4.60170,2470.857,2023-12-24T08:03:39Z
2023-12-24T06:04:12Z,42.805,6.029,13.3044,4.60164,2470.894,2023-12-24T08:06:42Z
2023-12-24T06:07:15Z,42.805,6.029,13.3036,4.60173,2470.833,2023-12-24T08:09:45Z
2023-12-24T06:10:18Z,42.805,6.029,13.3043,4.60160,2470.857,2023-12-24T08:12:48Z
2023-12-24T06:13:21Z,42.805,6.029,13.3037,4.60147,2470.88,2023-12-24T08:15:52Z
2023-12-24T06:16:24Z,42.805,6.029,13.3039,4.60152,2470.833,2023-12-24T08:18:55Z
2023-12-24T06:19:27Z,42.805,6.029,13.3047,4.60173,2470.871,2023-12-24T08:21:58Z
2023-12-24T06:22:30Z,42.805,6.029,13.3041,4.60175,2470.857,2023-12-24T08:25:01Z
2023-12-24T06:25:33Z,42.805,6.029,13.3049,4.60155,2470.871,2023-12-24T08:28:04Z
2023-12-24T06:28:36Z,42.805,6.029,13.3050,4.60178,2470.88,2023-12-24T08:31:07Z
2023-12-24T06:31:40Z,42.805,6.029,13.3058,4.60162,2470.833,2023-12-24T08:34:10Z
2023-12-24T06:34:43Z,42.805,6.029,13.3055,4.60193,2470.871,2023-12-24T08:37:13Z
2023-12-24T06:37:46Z,42.805,6.029,13.3057,4.60195,2470.833,2023-12-24T08:40:16Z
2023-12-24T06:40:49Z,42.805,6.029,13.3054,4.60180,2470.857,2023-12-24T08:43:19Z
2023-12-24T06:43:52Z,42.805,6.029,13.3056,4.60174,2470.833,2023-12-24T08:46:22Z
2023-12-24T06:46:55Z,42.805,6.029,13.3043,4.60178,2470.871,2023-12-24T08:49:25Z
2023-12-24T06:49:58Z,42.805,6.029,13.3062,4.60176,2470.847,2023-12-24T08:52:29Z
2023-12-24T06:53:01Z,42.805,6.029,13.3054,4.60168,2470.824,2023-12-24T08:55:32Z
2023-12-24T06:56:04Z,42.805,6.029,13.3058,4.60211,2470.833,2023-12-24T08:58:35Z
2023-12-24T06:59:07Z,42.805,6.029,13.3052,4.60168,2470.81,2023-12-24T09:01:38Z
2023-12-24T07:02:10Z,42.805,6.029,13.3056,4.60179,2470.833,2023-12-24T09:04:41Z
2023-12-24T07:05:13Z,42.805,6.029,13.3067,4.60180,2470.847,2023-12-24T09:07:44Z
2023-12-24T07:08:17Z,42.805,6.029,13.3057,4.60178,2470.833,2023-12-24T09:10:47Z
2023-12-24T07:11:20Z,42.805,6.029,13.3073,4.60193,2470.857,2023-12-24T09:13:50Z
2023-12-24T07:14:23Z,42.805,6.029,13.3045,4.60177,2470.81,2023-12-24T09:16:53Z
2023-12-24T07:17:26Z,42.805,6.029,13.3057,4.60203,2470.81,2023-12-24T09:19:56Z
2023-12-24T07:20:29Z,42.805,6.029,13.3054,4.60169,2470.81,2023-12-24T09:22:59Z
2023-12-24T07:23:32Z,42.805,6.029,13.3072,4.60188,2470.81,2023-12-24T09:26:02Z
2023-12-24T07:26:35Z,42.805,6.029,13.3060,4.60189,2470.847,2023-12-24T09:29:06Z
2023-12-24T07:29:38Z,42.805,6.029,13.3062,4.60184,2470.833,2023-12-24T09:32:09Z
2023-12-24T07:32:41Z,42.805,6.029,13.3048,4.60186,2470.843,2023-12-24T09:35:12Z
2023-12-24T07:35:44Z,42.805,6.029,13.3048,4.60182,2470.847,2023-12-24T09:38:15Z
2023-12-24T07:38:47Z,42.805,6.029,13.3054,4.60199,2470.833,2023-12-24T09:41:18Z
2023-12-24T07:41:51Z,42.805,6.029,13.3067,4.60180,2470.833,2023-12-24T09:44:21Z
2023-12-24T07:44:54Z,42.805,6.029,13.3067,4.60196,2470.81,2023-12-24T09:47:24Z
2023-12-24T07:47:57Z,42.805,6.029,13.3047,4.60183,2470.81,2023-12-24T09:50:27Z
2023-12-24T07:51:00Z,42.805,6.029,13.3057,4.60205,2470.81,2023-12-24T09:53:30Z
2023-12-24T07:54:03Z,42.805,6.029,13.3058,4.60178,2470.857,2023-12-24T09:56:33Z
2023-12-24T07:57:06Z,42.805,6.029,13.3053,4.60175,2470.833,2023-12-24T09:59:37Z
2023-12-24T08:00:09Z,42.805,6.029,13.3051,4.60165,2470.824,2023-12-24T10:02:40Z
2023-12-24T08:03:12Z,42.805,6.029,13.3047,4.60186,2470.824,2023-12-24T10:05:43Z
2023-12-24T08:06:15Z,42.805,6.029,13.3050,4.60189,2470.847,2023-12-24T10:08:46Z
2023-12-24T08:09:18Z,42.805,6.029,13.3053,4.60200,2470.81,2023-12-24T10:11:49Z
2023-12-24T08:12:21Z,42.805,6.029,13.3057,4.60195,2470.847,2023-12-24T10:14:52Z
2023-12-24T08:15:24Z,42.805,6.029,13.3060,4.60185,2470.787,2023-12-24T10:17:55Z
2023-12-24T08:18:28Z,42.805,6.029,13.3085,4.60183,2470.8,2023-12-24T10:20:58Z
2023-12-24T08:21:31Z,42.805,6.029,13.3046,4.60178,2470.833,2023-12-24T10:24:01Z
2023-12-24T08:24:34Z,42.805,6.029,13.3054,4.60185,2470.847,2023-12-24T10:27:04Z
2023-12-24T08:27:37Z,42.805,6.029,13.3051,4.60173,2470.847,2023-12-24T10:30:07Z
2023-12-24T08:30:40Z,42.805,6.029,13.3048,4.60202,2470.824,2023-12-24T10:33:10Z
2023-12-24T08:33:43Z,42.805,6.029,13.3053,4.60181,2470.81,2023-12-24T10:36:14Z
2023-12-24T08:36:46Z,42.805,6.029,13.3056,4.60181,2470.871,2023-12-24T10:39:17Z
2023-12-24T08:39:49Z,42.805,6.029,13.3051,4.60175,2470.824,2023-12-24T10:42:20Z
2023-12-24T08:42:52Z,42.805,6.029,13.3090,4.60177,2470.81,2023-12-24T10:45:23Z
2023-12-24T08:45:55Z,42.805,6.029,13.3057,4.60170,2470.824,2023-12-24T10:48:26Z
2023-12-24T08:48:58Z,42.805,6.029,13.3070,4.60215,2470.833,2023-12-24T10:51:29Z
2023-12-24T08:52:02Z,42.805,6.029,13.3061,4.60160,2470.8,2023-12-24T10:54:32Z
2023-12-24T08:55:05Z,42.805,6.029,13.3058,4.60158,2470.847,2023-12-24T10:57:35Z
2023-12-24T08:58:08Z,42.805,6.029,13.3055,4.60187,2470.81,2023-12-24T11:00:38Z
2023-12-24T09:01:11Z,42.805,6.029,13.3064,4.60170,2470.777,2023-12-24T11:03:41Z
2023-12-24T09:04:14Z,42.805,6.029,13.3051,4.60200,2470.824,2023-12-24T11:06:44Z
2023-12-24T09:07:17Z,42.805,6.029,13.3059,4.60175,2470.8,2023-12-24T11:09:48Z
2023-12-24T09:10:20Z,42.805,6.029,13.3050,4.60186,2470.81,2023-12-24T11:12:51Z
2023-12-24T09:13:23Z,42.805,6.029,13.3058,4.60173,2470.824,2023-12-24T11:15:54Z
2023-12-24T09:16:26Z,42.805,6.029,13.3058,4.60183,2470.833,2023-12-24T11:18:57Z
2023-12-24T09:19:29Z,42.805,6.029,13.3053,4.60198,2470.824,2023-12-24T11:22:00Z
2023-12-24T09:22:32Z,42.805,6.029,13.3049,4.60185,2470.81,2023-12-24T11:25:03Z
2023-12-24T09:25:36Z,42.805,6.029,13.3047,4.60173,2470.8,2023-12-24T11:28:06Z
2023-12-24T09:28:39Z,42.805,6.029,13.3051,4.60183,2470.81,2023-12-24T11:31:09Z
2023-12-24T09:31:42Z,42.805,6.029,13.3056,4.60182,2470.847,2023-12-24T11:34:12Z
2023-12-24T09:34:45Z,42.805,6.029,13.3063,4.60165,2470.81,2023-12-24T11:37:15Z
2023-12-24T09:37:48Z,42.805,6.029,13.3053,4.60179,2470.763,2023-12-24T11:40:18Z
2023-12-24T09:40:51Z,42.805,6.029,13.3055,4.60180,2470.824,2023-12-24T11:43:21Z
2023-12-24T09:43:54Z,42.805,6.029,13.3052,4.60178,2470.763,2023-12-24T11:46:25Z
2023-12-24T09:46:57Z,42.805,6.029,13.3053,4.60180,2470.787,2023-12-24T11:49:28Z
2023-12-24T09:50:00Z,42.805,6.029,13.3048,4.60200,2470.787,2023-12-24T11:52:31Z
2023-12-24T09:53:03Z,42.805,6.029,13.3061,4.60170,2470.773,2023-12-24T11:55:34Z
2023-12-24T09:56:06Z,42.805,6.029,13.3051,4.60190,2470.787,2023-12-24T11:58:37Z
2023-12-24T09:59:10Z,42.805,6.029,13.3056,4.60193,2470.763,2023-12-24T12:01:40Z
2023-12-24T10:02:13Z,42.805,6.029,13.3043,4.60187,2470.8,2023-12-24T12:04:43Z
2023-12-24T10:05:16Z,42.805,6.029,13.3056,4.60173,2470.8,2023-12-24T12:07:46Z
2023-12-24T10:08:19Z,42.805,6.029,13.3053,4.60179,2470.787,2023-12-24T12:10:49Z
2023-12-24T10:11:22Z,42.805,6.029,13.3049,4.60173,2470.777,2023-12-24T12:13:52Z
2023-12-24T10:14:25Z,42.805,6.029,13.3057,4.60185,2470.8,2023-12-24T12:16:56Z
2023-12-24T10:17:28Z,42.805,6.029,13.3048,4.60169,2470.777,2023-12-24T12:19:59Z
2023-12-24T10:20:31Z,42.805,6.029,13.3051,4.60176,2470.787,2023-12-24T12:23:02Z
2023-12-24T10:23:34Z,42.805,6.029,13.3056,4.60187,2470.8,2023-12-24T12:26:05Z
2023-12-24T10:26:37Z,42.805,6.029,13.3052,4.60176,2470.787,2023-12-24T12:29:08Z
2023-12-24T10:29:40Z,42.805,6.029,13.3047,4.60165,2470.763,2023-12-24T12:32:11Z
2023-12-24T10:32:43Z,42.805,6.029,13.3055,4.60164,2470.763,2023-12-24T12:35:14Z
2023-12-24T10:35:47Z,42.805,6.029,13.3061,4.60186,2470.8,2023-12-24T12:38:17Z
2023-12-24T10:38:50Z,42.805,6.029,13.3063,4.60165,2470.787,2023-12-24T12:41:20Z
2023-12-24T10:41:53Z,42.805,6.029,13.3069,4.60186,2470.763,2023-12-24T12:44:23Z
2023-12-24T10:44:56Z,42.805,6.029,13.3063,4.60191,2470.763,2023-12-24T12:47:26Z
2023-12-24T10:47:59Z,42.805,6.029,13.3054,4.60169,2470.777,2023-12-24T12:50:29Z
2023-12-24T10:51:02Z,42.805,6.029,13.3052,4.60201,2470.74,2023-12-24T12:53:33Z
2023-12-24T10:54:05Z,42.805,6.029,13.3060,4.60154,2470.787,2023-12-24T12:56:36Z
2023-12-24T10:57:08Z,42.805,6.029,13.3054,4.60180,2470.763,2023-12-24T12:59:39Z
2023-12-24T11:00:11Z,42.805,6.029,13.3067,4.60162,2470.787,2023-12-24T13:02:42Z
2023-12-24T11:03:14Z,42.805,6.029,13.3054,4.60189,2470.777,2023-12-24T13:05:45Z
2023-12-24T11:06:17Z,42.805,6.029,13.3058,4.60157,2470.74,2023-12-24T13:08:48Z
2023-12-24T11:09:21Z,42.805,6.029,13.3066,4.60198,2470.763,2023-12-24T13:11:51Z
2023-12-24T11:12:24Z,42.805,6.029,13.3063,4.60140,2470.787,2023-12-24T13:14:54Z
2023-12-24T11:15:27Z,42.805,6.029,13.3063,4.60176,2470.763,2023-12-24T13:17:57Z
2023-12-24T11:18:30Z,42.805,6.029,13.3058,4.60173,2470.74,2023-12-24T13:21:00Z
2023-12-24T11:21:33Z,42.805,6.029,13.3056,4.60178,2470.8,2023-12-24T13:24:03Z
2023-12-24T11:24:36Z,42.805,6.029,13.3066,4.60195,2470.74,2023-12-24T13:27:07Z
2023-12-24T11:27:39Z,42.805,6.029,13.3049,4.60167,2470.717,2023-12-24T13:30:10Z
2023-12-24T11:30:42Z,42.805,6.029,13.3056,4.60170,2470.693,2023-12-24T13:33:13Z
2023-12-24T11:33:45Z,42.805,6.029,13.3050,4.60159,2470.754,2023-12-24T13:36:16Z
2023-12-24T11:36:48Z,42.805,6.029,13.3042,4.60182,2470.763,2023-12-24T13:39:19Z
2023-12-24T11:39:51Z,42.805,6.029,13.3051,4.60170,2470.754,2023-12-24T13:42:22Z
2023-12-24T11:42:54Z,42.805,6.029,13.3054,4.60144,2470.777,2023-12-24T13:45:25Z
2023-12-24T11:45:58Z,42.805,6.029,13.3065,4.60170,2470.777,2023-12-24T13:48:28Z
2023-12-24T11:49:01Z,42.805,6.029,13.3051,4.60175,2470.787,2023-12-24T13:51:31Z
2023-12-24T11:52:04Z,42.805,6.029,13.3055,4.60162,2470.754,2023-12-24T13:54:34Z
2023-12-24T11:55:07Z,42.805,6.029,13.3052,4.60185,2470.726,2023-12-24T13:57:37Z
2023-12-24T11:58:10Z,42.805,6.029,13.3058,4.60200,2470.74,2023-12-24T14:00:41Z
2023-12-24T12:01:13Z,42.805,6.029,13.3060,4.60174,2470.754,2023-12-24T14:03:44Z
2023-12-24T12:04:16Z,42.805,6.029,13.3057,4.60151,2470.73,2023-12-24T14:06:47Z
2023-12-24T12:07:19Z,42.805,6.029,13.3062,4.60145,2470.74,2023-12-24T14:09:50Z
2023-12-24T12:10:22Z,42.805,6.029,13.3067,4.60190,2470.74,2023-12-24T14:12:53Z
2023-12-24T12:13:25Z,42.805,6.029,13.3053,4.60175,2470.787,2023-12-24T14:15:56Z
2023-12-24T12:16:28Z,42.805,6.029,13.3058,4.60163,2470.74,2023-12-24T14:18:59Z
2023-12-24T12:19:32Z,42.805,6.029,13.3046,4.60147,2470.74,2023-12-24T14:22:02Z
2023-12-24T12:22:35Z,42.805,6.029,13.3055,4.60180,2470.754,2023-12-24T14:25:05Z
2023-12-24T12:25:38Z,42.805,6.029,13.3057,4.60185,2470.754,2023-12-24T14:28:08Z
2023-12-24T12:28:41Z,42.805,6.029,13.3050,4.60173,2470.75,2023-12-24T14:31:11Z
2023-12-24T12:31:44Z,42.805,6.029,13.3047,4.60155,2470.717,2023-12-24T14:34:14Z
2023-12-24T12:34:47Z,42.805,6.029,13.3047,4.60175,2470.73,2023-12-24T14:37:18Z
2023-12-24T12:37:50Z,42.805,6.029,13.3046,4.60157,2470.74,2023-12-24T14:40:21Z
2023-12-24T12:40:53Z,42.805,6.029,13.3058,4.60167,2470.74,2023-12-24T14:43:24Z
2023-12-24T12:43:56Z,42.805,6.029,13.3042,4.60176,2470.754,2023-12-24T14:46:27Z
2023-12-24T12:46:59Z,42.805,6.029,13.3057,4.60173,2470.763,2023-12-24T14:49:30Z
2023-12-24T12:50:02Z,42.805,6.029,13.3067,4.60160,2470.763,2023-12-24T14:52:33Z
2023-12-24T12:53:06Z,42.805,6.029,13.3050,4.60169,2470.754,2023-12-24T14:55:36Z
2023-12-24T12:56:09Z,42.805,6.029,13.3045,4.60183,2470.763,2023-12-24T14:58:39Z
2023-12-24T12:59:12Z,42.805,6.029,13.3074,4.60160,2470.717,2023-12-24T15:01:42Z
2023-12-24T13:02:15Z,42.805,6.029,13.3051,4.60173,2470.763,2023-12-24T15:04:45Z
2023-12-24T13:05:18Z,42.805,6.029,13.3048,4.60172,2470.717,2023-12-24T15:07:48Z
2023-12-24T13:08:21Z,42.805,6.029,13.3058,4.60172,2470.74,2023-12-24T15:10:52Z
2023-12-24T13:11:24Z,42.805,6.029,13.3074,4.60176,2470.74,2023-12-24T15:13:55Z
2023-12-24T13:14:27Z,42.805,6.029,13.3062,4.60163,2470.74,2023-12-24T15:16:58Z
2023-12-24T13:17:30Z,42.805,6.029,13.3050,4.60172,2470.717,2023-12-24T15:20:01Z
2023-12-24T13:20:33Z,42.805,6.029,13.3054,4.60179,2470.754,2023-12-24T15:23:04Z
2023-12-24T13:23:36Z,42.805,6.029,13.3055,4.60175,2470.777,2023-12-24T15:26:07Z
2023-12-24T13:26:39Z,42.805,6.029,13.3048,4.60162,2470.754,2023-12-24T15:29:10Z
2023-12-24T13:29:43Z,42.805,6.029,13.3048,4.60180,2470.787,2023-12-24T15:32:13Z
2023-12-24T13:32:44Z,42.805,6.029,13.3054,4.60158,2470.763,2023-12-24T15:35:15Z
2023-12-24T13:35:47Z,42.805,6.029,13.3062,4.60181,2470.787,2023-12-24T15:38:18Z
2023-12-24T13:38:50Z,42.805,6.029,13.3048,4.60159,2470.73,2023-12-24T15:41:21Z
2023-12-24T13:41:53Z,42.805,6.029,13.3044,4.60154,2470.763,2023-12-24T15:44:24Z
2023-12-24T13:44:56Z,42.805,6.029,13.3043,4.60164,2470.763,2023-12-24T15:47:27Z
2023-12-24T13:48:00Z,42.805,6.029,13.3043,4.60178,2470.74,2023-12-24T15:50:30Z
2023-12-24T13:51:03Z,42.805,6.029,13.3048,4.60178,2470.8,2023-12-24T15:53:33Z
2023-12-24T13:54:06Z,42.805,6.029,13.3058,4.60184,2470.74,2023-12-24T15:56:36Z
2023-12-24T13:57:09Z,42.805,6.029,13.3044,4.60172,2470.787,2023-12-24T15:59:39Z
2023-12-24T14:00:12Z,42.805,6.029,13.3048,4.60178,2470.787,2023-12-24T16:02:42Z
2023-12-24T14:03:15Z,42.805,6.029,13.3042,4.60178,2470.763,2023-12-24T16:05:46Z
2023-12-24T14:06:18Z,42.805,6.029,13.3039,4.60169,2470.763,2023-12-24T16:08:49Z
2023-12-24T14:09:21Z,42.805,6.029,13.3041,4.60185,2470.787,2023-12-24T16:11:52Z
2023-12-24T14:12:24Z,42.805,6.029,13.3043,4.60178,2470.8,2023-12-24T16:14:55Z
2023-12-24T14:15:27Z,42.805,6.029,13.3048,4.60195,2470.763,2023-12-24T16:17:58Z
2023-12-24T14:18:30Z,42.805,6.029,13.3048,4.60160,2470.8,2023-12-24T16:21:01Z
2023-12-24T14:21:33Z,42.805,6.029,13.3051,4.60176,2470.763,2023-12-24T16:24:04Z
2023-12-24T14:24:37Z,42.805,6.029,13.3048,4.60179,2470.763,2023-12-24T16:27:07Z
2023-12-24T14:27:40Z,42.805,6.029,13.3042,4.60158,2470.787,2023-12-24T16:30:10Z
2023-12-24T14:30:43Z,42.805,6.029,13.3043,4.60170,2470.787,2023-12-24T16:33:13Z
2023-12-24T14:33:46Z,42.805,6.029,13.3072,4.60170,2470.81,2023-12-24T16:36:16Z
2023-12-24T14:36:49Z,42.805,6.029,13.3060,4.60183,2470.8,2023-12-24T16:39:19Z
2023-12-24T14:39:52Z,42.805,6.029,13.3056,4.60180,2470.8,2023-12-24T16:42:23Z
2023-12-24T14:42:55Z,42.805,6.029,13.3051,4.60196,2470.81,2023-12-24T16:45:26Z
2023-12-24T14:45:58Z,42.805,6.029,13.3058,4.60180,2470.787,2023-12-24T16:48:29Z
2023-12-24T14:49:01Z,42.805,6.029,13.3053,4.60185,2470.8,2023-12-24T16:51:32Z
2023-12-24T14:52:04Z,42.805,6.029,13.3054,4.60174,2470.81,2023-12-24T16:54:35Z
2023-12-24T14:55:07Z,42.805,6.029,13.3047,4.60183,2470.8,2023-12-24T16:57:38Z
2023-12-24T14:58:10Z,42.805,6.029,13.3048,4.60173,2470.847,2023-12-24T17:00:41Z
2023-12-24T15:01:14Z,42.805,6.029,13.3046,4.60192,2470.763,2023-12-24T17:03:44Z